sat.trackr.live / text

‹ back to catalog

STARLINK-1641

NORAD 46174 · 2020-057BK

PAYLOAD ACTIVE UNKNOWN

§ Identity

Operator
Country
US
Launch date
2020-08-18
Launch site
AFETR
Launch vehicle
Mass (kg)
RCS (m²)

Purposes: comms

External: N2YO · Heavens-Above · Gunter

§ Orbital elements

Epoch: 2026-09-20T06:00:02.000160Z

Period
90.72 min
Inclination
53.0358°
Eccentricity
0.0002969
Mean motion
15.87251790 rev/d
Perigee alt
308.0 km
Apogee alt
312.0 km
Semi-major
6,688.1 km
B*
7.3330e-4
RAAN
50.9625°
Arg perigee
273.9614°
Mean anomaly
57.8529°
Rev number
594

§ Raw data

STARLINK-16411 46174U 20057BK  26263.25002315  .00199934  00000+0  73330-3 0  99962 46174  53.0358  50.9625 0002969 273.9614  57.8529 15.87251790  5942

JSON: /api/v1/satellites/46174 · /tle

For live sub-satellite position, see the globe view (requires WebGL).

§ Visibility from observer

Set your observer location to see the next 7 days of passes ≥ 10°. The values pass through the URL so the page stays shareable.

No JS? Fill the form by hand. The geolocation button needs JavaScript.